Tracking 29892 objects as of 21-Nov-2024
HD Live streaming from Space Station
objects crossing your sky now

STARLINK-30973

Track STARLINK-30973 now!
10-day predictions
STARLINK-30973 is classified as:


NORAD ID: 58713
Int'l Code: 2024-002J
Perigee: 557.7 km
Apogee: 560.0 km
Inclination: 53.2 °
Period: 95.7 minutes
Semi major axis: 6929 km
RCS: Unknown
Launch date: January 3, 2024
Source: United States (US)
Launch site: AIR FORCE WESTERN TEST RANGE (AFWTR)
Your satellite tracking list
Your tracking list is empty




NASA's NSSDC Master Catalog

Two Line Element Set (TLE):
1 58713U 24002J   24326.15825423  .00001573  00000-0  12919-3 0  9990
2 58713  53.1599 233.1991 0001703 101.3393 258.7788 15.04931763 50006
Source of the keplerian elements: AFSPC